Ft. Stewart, GA

12:54 PM EST on December 17, 2017 (GMT -0500)
Wright Army Air Field

Weather History for KLHW - December, 2013

Change the Weather History Date:

Sunday, December 15, 2013

  Actual Average Record
Temperature  
Mean Temperature 55 °F -  
Max Temperature 66 °F 66 °F 82 °F (1972)
Min Temperature 42 °F 43 °F 22 °F (2010)
Degree Days  
Heating Degree Days 10    
Growing Degree Days 5 (Base 50)    
Moisture  
Dew Point 57 °F    
Average Humidity 95    
Maximum Humidity 100    
Minimum Humidity 77    
Precipitation  
Precipitation 0.05 in - - ()
Sea Level Pressure  
Sea Level Pressure 29.94 in    
Wind  
Wind Speed 8 mph (West)    
Max Wind Speed 17 mph    
Max Gust Speed 23 mph    
Visibility 10 miles    
Events Rain    
Averages and records for this station are not official NWS values.
T = Trace of Precipitation, MM = Missing Value Source: NWS Daily Summary

Daily Weather History Graph

Daily Weather History Graph

Search for Another Location

Airport or City:

Trip Planner

Search our weather history database for the weather conditions in past years. The results will help you decide how hot, cold, wet, or windy it might be!

Date:

Astronomy

Dec. 15, 2013 Rise Set
Actual Time 7:19 AM EST 5:23 PM EST
Civil Twilight 6:52 AM EST 5:50 PM EST
Nautical Twilight 6:21 AM EST 6:21 PM EST
Astronomical Twilight 5:51 AM EST 6:51 PM EST
Moon 4:23 PM EST (12/15) 5:38 AM EST (12/15)
Length of Visible Light 10h 58m
Length of Day
10h 04m
Waxing Gibbous, 97% of the Moon is Illuminated
Dec 15
Waxing Gibbous
Dec 17
Full
Dec 25
Last Quarter
Jan 1
New
Jan 7
First Quarter

Hourly Weather History & Observations

Time (EST) Temp. Windchill Dew Point Humidity Pressure Visibility Wind Dir Wind Speed Gust Speed Precip Events Conditions
12:38 AM 66.2 °F - 66.2 °F 100% 29.84 in 10.0 mi WSW 5.8 mph - N/A   Overcast
12:48 AM 66.2 °F - 66.2 °F 100% 29.85 in 10.0 mi WSW 9.2 mph - N/A   Overcast
12:53 AM 66.2 °F - 66.2 °F 100% 29.85 in 10.0 mi WSW 8.1 mph - N/A   Overcast
12:58 AM 65.5 °F - 65.5 °F 100% 29.87 in 10.0 mi WSW 11.5 mph - N/A   Overcast
1:58 AM 65.5 °F - 65.5 °F 100% 29.87 in 10.0 mi West 8.1 mph - N/A   Overcast
2:18 AM 64.4 °F - 64.4 °F 100% 29.84 in 10.0 mi WNW 9.2 mph - N/A   Overcast
2:19 AM 64.4 °F - 64.4 °F 100% 29.84 in 10.0 mi WNW 9.2 mph - N/A Rain Light Rain
2:41 AM 64.4 °F - 64.4 °F 100% 29.85 in 10.0 mi WNW 9.2 mph - N/A   Overcast
2:58 AM 64.4 °F - 64.4 °F 100% 29.85 in 10.0 mi NW 8.1 mph - 0.00 in   Overcast
3:08 AM 64.4 °F - 64.4 °F 100% 29.84 in 7.0 mi WNW 9.2 mph - N/A   Overcast
3:11 AM 64.4 °F - 64.4 °F 100% 29.84 in 7.0 mi WNW 8.1 mph - N/A Rain Light Rain
3:16 AM 64.4 °F - 64.4 °F 100% 29.84 in 10.0 mi NW 8.1 mph - N/A Rain Light Rain
3:22 AM 64.4 °F - 64.4 °F 100% 29.84 in 10.0 mi WNW 8.1 mph - N/A   Overcast
3:58 AM 63.3 °F - 62.2 °F 96% 29.85 in 10.0 mi WNW 6.9 mph - 0.00 in   Overcast
4:17 AM 62.6 °F - 60.8 °F 94% 29.86 in 10.0 mi WNW 6.9 mph - N/A Rain Light Rain
4:34 AM 62.6 °F - 59.0 °F 88% 29.87 in 10.0 mi WNW 8.1 mph - N/A   Overcast
4:48 AM 62.6 °F - 59.0 °F 88% 29.87 in 10.0 mi WNW 8.1 mph - N/A Rain Light Rain
4:58 AM 61.7 °F - 59.9 °F 94% 29.89 in 10.0 mi WNW 9.2 mph - 0.00 in Rain Light Rain
5:19 AM 59.0 °F - 59.0 °F 100% 29.87 in 10.0 mi NNW 1.2 mph - N/A   Overcast
5:29 AM 59.0 °F - 59.0 °F 100% 29.88 in 10.0 mi West 4.6 mph - N/A Rain Light Rain
5:52 AM 59.0 °F - 59.0 °F 100% 29.88 in 10.0 mi Calm Calm - N/A   Overcast
5:58 AM 59.0 °F - 59.0 °F 100% 29.90 in 10.0 mi Calm Calm - 0.00 in   Overcast
6:05 AM 59.0 °F - 59.0 °F 100% 29.89 in 10.0 mi NNW 1.2 mph - N/A Rain Light Rain
6:25 AM 59.0 °F - 59.0 °F 100% 29.90 in 9.0 mi West 10.4 mph 17.3 mph N/A Rain Rain
6:35 AM 59.0 °F - 59.0 °F 100% 29.88 in 10.0 mi WSW 11.5 mph - N/A Rain Light Rain
6:58 AM 57.7 °F - 57.7 °F 100% 29.90 in 10.0 mi SW 6.9 mph - 0.02 in Rain Light Rain
7:28 AM 57.2 °F - 57.2 °F 100% 29.93 in 10.0 mi WSW 10.4 mph - N/A Rain Light Rain
7:48 AM 57.2 °F - 57.2 °F 100% 29.92 in 10.0 mi SSW 5.8 mph - N/A Rain Light Rain
7:53 AM 57.2 °F - 57.2 °F 100% 29.92 in 10.0 mi SSW 5.8 mph - N/A Rain Light Rain
7:58 AM 57.4 °F - 57.4 °F 100% 29.94 in 10.0 mi SW 6.9 mph - 0.01 in Rain Light Rain
8:05 AM 57.2 °F - 57.2 °F 100% 29.93 in 10.0 mi SW 8.1 mph - N/A   Overcast
8:07 AM 57.2 °F - 57.2 °F 100% 29.92 in 10.0 mi SW 5.8 mph - N/A Rain Light Rain
8:37 AM 57.2 °F - 57.2 °F 100% 29.93 in 10.0 mi WSW 5.8 mph - N/A   Light Drizzle
8:42 AM 57.2 °F - 57.2 °F 100% 29.92 in 10.0 mi SW 5.8 mph - N/A Rain Light Rain
8:58 AM 57.4 °F - 57.4 °F 100% 29.95 in 10.0 mi WSW 5.8 mph - 0.02 in Rain Light Rain
9:00 AM 57.2 °F - 57.2 °F 100% 29.94 in 10.0 mi WSW 8.1 mph - N/A   Overcast
9:58 AM 57.9 °F - 57.9 °F 100% 29.98 in 10.0 mi WSW 8.1 mph - 0.00 in   Overcast
10:03 AM 59.0 °F - 59.0 °F 100% 29.98 in 10.0 mi West 9.2 mph - N/A   Overcast
10:08 AM 59.0 °F - 59.0 °F 100% 29.98 in 10.0 mi West 9.2 mph - N/A   Overcast
10:18 AM 59.0 °F - 59.0 °F 100% 29.98 in 10.0 mi West 10.4 mph - N/A   Overcast
10:23 AM 59.0 °F - 59.0 °F 100% 29.98 in 10.0 mi West 10.4 mph - N/A   Overcast
10:33 AM 59.0 °F - 59.0 °F 100% 29.99 in 10.0 mi West 10.4 mph - N/A   Overcast
10:53 AM 59.0 °F - 59.0 °F 100% 29.98 in 10.0 mi WNW 13.8 mph - N/A   Overcast
10:58 AM 57.2 °F - 57.2 °F 100% 29.99 in 10.0 mi WNW 17.3 mph 20.7 mph N/A   Overcast
11:03 AM 57.2 °F - 57.2 °F 100% 29.98 in 10.0 mi WNW 12.7 mph 20.7 mph N/A   Overcast
11:33 AM 59.0 °F - 55.4 °F 88% 29.97 in 10.0 mi West 11.5 mph 19.6 mph N/A   Mostly Cloudy
11:38 AM 59.0 °F - 55.4 °F 88% 29.97 in 10.0 mi NW 9.2 mph 19.6 mph N/A   Overcast
11:58 AM 57.6 °F - 55.0 °F 91% 29.98 in 10.0 mi West 10.4 mph - N/A   Overcast
12:58 PM 55.9 °F - 52.2 °F 87% 29.98 in 10.0 mi West 12.7 mph - N/A   Overcast
1:58 PM 55.0 °F - 49.3 °F 81% 29.97 in 10.0 mi West 16.1 mph 23.0 mph N/A   Mostly Cloudy
2:03 PM 55.4 °F - 48.2 °F 77% 29.96 in 10.0 mi West 10.4 mph 23.0 mph N/A   Scattered Clouds
2:58 PM 54.1 °F - 47.3 °F 78% 29.98 in 10.0 mi West 12.7 mph - N/A   Partly Cloudy
3:58 PM 52.5 °F - 45.9 °F 78% 30.00 in 10.0 mi WSW 8.1 mph - N/A   Scattered Clouds
4:58 PM 52.0 °F - 45.5 °F 79% 30.02 in 10.0 mi WNW 6.9 mph - N/A   Clear
5:58 PM 49.6 °F - 44.4 °F 82% 30.05 in 10.0 mi West 3.5 mph - N/A   Clear
6:58 PM 48.7 °F - 44.2 °F 84% 30.07 in 10.0 mi Calm Calm - N/A   Partly Cloudy
7:58 PM 48.2 °F - 43.7 °F 84% 30.09 in 10.0 mi WNW 4.6 mph - N/A   Partly Cloudy
8:58 PM 47.5 °F - 41.5 °F 80% 30.11 in 10.0 mi NW 8.1 mph - N/A   Mostly Cloudy
9:58 PM 45.9 °F 42.3 °F 39.2 °F 78% 30.14 in 10.0 mi NW 6.9 mph - N/A   Clear
10:58 PM 44.6 °F 41.4 °F 38.3 °F 79% 30.17 in 10.0 mi NW 5.8 mph - N/A   Clear
11:58 PM 42.1 °F 39.2 °F 37.4 °F 83% 30.18 in 10.0 mi WNW 4.6 mph - N/A   Clear